Location: Aldenham
(51.6667°N, 0.3500°W)
Time: 00:44:27
(UTC+00:00)

Vanguard 2 - Pass Details

Date: 25 February 2026
Orbit: 553 x 2896 km, 32.9° (Epoch: 7 March)

Event Time Altitude Azimuth Distance (km) Brightness Sun altitude
Exits shadow 05:46:59 - 232° (SW) 3,536 10.5 -11.4°
Reaches altitude 10° 05:50:00 10° 213° (SSW) 2,759 10.1 -10.9°
Maximum altitude 05:52:11 12° 193° (SSW) 2,418 10.0 -10.6°
Drops below altitude 10° 05:54:07 10° 173° (S) 2,370 10.2 -10.3°
Sets 05:57:53 0° 139° (SE) 2,989 11.3 -9.7°
